Enid, OK

12:34 PM CST on January 17, 2017 (GMT -0600)
Vance Air Force Base

Weather History for KEND - April, 2013

Change the Weather History Date:

Thursday, April 18, 2013

  Actual Average Record
Temperature  
Mean Temperature 40 °F -  
Max Temperature 44 °F 69 °F 88 °F (2011)
Min Temperature 32 °F 47 °F 32 °F (2013)
Degree Days  
Heating Degree Days 26    
Moisture  
Dew Point 35 °F    
Average Humidity 88    
Maximum Humidity 100    
Minimum Humidity 56    
Precipitation  
Precipitation 0.02 in - - ()
Sea Level Pressure  
Sea Level Pressure 29.89 in    
Wind  
Wind Speed 25 mph (NW)    
Max Wind Speed 33 mph    
Max Gust Speed 44 mph    
Visibility 10 miles    
Events Rain    
Averages and records for this station are not official NWS values.
T = Trace of Precipitation, MM = Missing Value Source: NWS Daily Summary

Daily Weather History Graph

Daily Weather History Graph

Search for Another Location

Airport or City:

Trip Planner

Search our weather history database for the weather conditions in past years. The results will help you decide how hot, cold, wet, or windy it might be!

Date:

Astronomy

Apr. 18, 2013 Rise Set
Actual Time 6:53 AM CDT 8:08 PM CDT
Civil Twilight 6:27 AM CDT 8:35 PM CDT
Nautical Twilight 5:55 AM CDT 9:07 PM CDT
Astronomical Twilight 5:22 AM CDT 9:40 PM CDT
Moon 1:08 PM CDT (4/18) 2:21 AM CDT (4/18)
Length of Visible Light 14h 08m
Length of Day
13h 14m
First Quarter, 52% of the Moon is Illuminated
Apr 18
First Quarter
Apr 25
Full
May 2
Last Quarter
May 9
New
May 17
First Quarter

Hourly Weather History & Observations

Time (CDT) Temp. Windchill Dew Point Humidity Pressure Visibility Wind Dir Wind Speed Gust Speed Precip Events Conditions
12:03 AM 42.8 °F 33.5 °F 42.8 °F 100% 29.68 in 10.0 mi NW 23.0 mph 28.8 mph N/A Rain Light Rain
12:38 AM 41.0 °F 30.7 °F 41.0 °F 100% 29.69 in 9.0 mi NW 25.3 mph 31.1 mph N/A Rain Light Rain
12:58 AM 41.4 °F 31.4 °F 41.4 °F 100% 29.71 in 7.0 mi NW 24.2 mph 34.5 mph 0.00 in Rain Light Rain
1:18 AM 41.0 °F 30.7 °F 41.0 °F 100% 29.71 in 6.0 mi NW 25.3 mph 31.1 mph N/A Rain Light Rain
1:33 AM 41.0 °F 31.1 °F 41.0 °F 100% 29.70 in 7.0 mi WNW 23.0 mph 31.1 mph N/A   Overcast
1:43 AM 41.0 °F 30.7 °F 41.0 °F 100% 29.71 in 9.0 mi WNW 25.3 mph 33.4 mph N/A Rain Light Rain
1:58 AM 41.0 °F 30.7 °F 41.0 °F 100% 29.75 in 7.0 mi WNW 25.3 mph 34.5 mph 0.01 in Rain Light Rain
2:13 AM 41.0 °F 30.9 °F 41.0 °F 100% 29.73 in 7.0 mi WNW 24.2 mph 36.8 mph N/A   Overcast
2:43 AM 39.2 °F 27.6 °F 39.2 °F 100% 29.73 in 10.0 mi WNW 28.8 mph 38.0 mph N/A Rain Light Rain
2:58 AM 39.6 °F 27.5 °F 39.6 °F 100% 29.75 in 10.0 mi NW 32.2 mph 43.7 mph 0.00 in Rain Light Rain
3:08 AM 39.2 °F 26.8 °F 39.2 °F 100% 29.73 in 10.0 mi WNW 33.4 mph 41.4 mph N/A Rain Light Rain
3:13 AM 39.2 °F 27.0 °F 39.2 °F 100% 29.72 in 10.0 mi NW 32.2 mph 39.1 mph N/A Rain Light Rain
3:18 AM 39.2 °F 27.0 °F 39.2 °F 100% 29.71 in 10.0 mi WNW 32.2 mph 39.1 mph N/A Rain Light Rain
3:58 AM 38.5 °F 26.4 °F 38.5 °F 100% 29.75 in 10.0 mi NW 29.9 mph 39.1 mph 0.00 in   Overcast
4:03 AM 39.2 °F 27.8 °F 39.2 °F 100% 29.76 in 10.0 mi NW 27.6 mph 39.1 mph N/A   Overcast
4:58 AM 38.1 °F 26.1 °F 38.1 °F 100% 29.83 in 10.0 mi WNW 28.8 mph 32.2 mph N/A   Overcast
5:08 AM 37.4 °F 26.1 °F 37.4 °F 100% 29.79 in 10.0 mi NW 24.2 mph 38.0 mph N/A   Overcast
5:53 AM 37.4 °F 25.6 °F 37.4 °F 100% 29.81 in 10.0 mi NW 26.5 mph 36.8 mph N/A   Overcast
5:58 AM 36.9 °F 24.9 °F 36.9 °F 100% 29.83 in 10.0 mi NW 26.5 mph 34.5 mph 0.01 in   Overcast
6:58 AM 36.1 °F 23.9 °F 36.0 °F 99% 29.88 in 10.0 mi NW 26.5 mph 36.8 mph N/A   Overcast
7:13 AM 35.6 °F 23.4 °F 35.6 °F 100% 29.86 in 10.0 mi NW 25.3 mph 33.4 mph N/A   Mostly Cloudy
7:18 AM 35.6 °F 25.2 °F 35.6 °F 100% 29.87 in 10.0 mi NW 18.4 mph - N/A   Mostly Cloudy
7:23 AM 35.6 °F 24.2 °F 35.6 °F 100% 29.87 in 10.0 mi NW 21.9 mph 26.5 mph N/A   Mostly Cloudy
7:58 AM 35.6 °F 24.0 °F 35.4 °F 99% 29.94 in 10.0 mi WNW 23.0 mph 33.4 mph N/A   Overcast
8:03 AM 35.6 °F 23.7 °F 35.6 °F 100% 29.91 in 10.0 mi NW 24.2 mph 33.4 mph N/A Rain Light Rain
8:48 AM 35.6 °F 24.0 °F 35.6 °F 100% 29.93 in 10.0 mi WNW 23.0 mph 29.9 mph N/A Rain Light Rain
8:58 AM 36.0 °F 24.4 °F 35.8 °F 99% 29.96 in 10.0 mi NW 23.0 mph 28.8 mph 0.00 in   Mostly Cloudy
9:53 AM 37.4 °F 26.6 °F 33.8 °F 87% 29.96 in 10.0 mi NW 21.9 mph 39.1 mph N/A   Overcast
9:58 AM 38.1 °F 26.1 °F 34.7 °F 87% 29.99 in 10.0 mi WNW 28.8 mph 34.5 mph N/A   Overcast
10:58 AM 39.2 °F 28.3 °F 33.3 °F 79% 30.00 in 10.0 mi NW 25.3 mph 34.5 mph N/A   Overcast
11:58 AM 40.8 °F 29.8 °F 32.0 °F 71% 29.99 in 10.0 mi NW 28.8 mph 31.1 mph N/A   Overcast
12:58 PM 40.3 °F 30.2 °F 31.5 °F 71% 30.01 in 10.0 mi NW 23.0 mph 28.8 mph N/A   Overcast
1:18 PM 41.0 °F 30.7 °F 32.0 °F 70% 29.99 in 10.0 mi NW 25.3 mph 31.1 mph N/A   Overcast
1:58 PM 41.7 °F 32.1 °F 30.9 °F 66% 30.03 in 10.0 mi WNW 23.0 mph 31.1 mph N/A   Overcast
2:58 PM 42.8 °F 33.1 °F 29.8 °F 60% 30.04 in 10.0 mi NW 25.3 mph - N/A   Mostly Cloudy
3:58 PM 44.1 °F 33.8 °F 29.7 °F 57% 30.03 in 10.0 mi WNW 31.1 mph 32.2 mph N/A   Mostly Cloudy
4:58 PM 43.9 °F 34.3 °F 28.9 °F 56% 30.04 in 10.0 mi NW 26.5 mph 34.5 mph N/A   Mostly Cloudy
5:58 PM 43.0 °F 34.0 °F 28.0 °F 56% 30.06 in 10.0 mi WNW 21.9 mph 32.2 mph N/A   Overcast
6:58 PM 42.3 °F 33.8 °F 27.3 °F 56% 30.08 in 10.0 mi NW 18.4 mph - N/A   Overcast
7:58 PM 41.4 °F 33.6 °F 28.2 °F 60% 30.10 in 10.0 mi NW 15.0 mph - N/A   Overcast
8:58 PM 40.6 °F 33.4 °F 28.4 °F 62% 30.13 in 10.0 mi NW 12.7 mph - N/A   Overcast
9:58 PM 40.1 °F 32.4 °F 28.0 °F 62% 30.15 in 10.0 mi WNW 13.8 mph - N/A   Overcast
10:58 PM 35.2 °F 27.6 °F 26.6 °F 71% 30.16 in 10.0 mi WNW 10.4 mph - N/A   Partly Cloudy
11:58 PM 32.4 °F 25.3 °F 27.5 °F 82% 30.15 in 10.0 mi West 8.1 mph - N/A   Clear